Location: Krakow
(50.0830°N, 19.9170°E)
Time: 05:33:52
(UTC+01:00)

Transit 2A Rocket - Visible Passes

Search period start: 10 December 2023 00:00
Search period end: 20 December 2023 00:00
Orbit: 593 x 903 km, 66.7° (Epoch: 09 December)

Date Brightness Start Highest point End Pass type
(mag) Time Alt. Az. Time Alt. Az. Time Alt. Az.
10 Dec 6.1 04:33:58 27° S 04:33:58 27° S 04:36:09 10° SSE visible
11 Dec 7.3 03:52:09 13° SE 03:52:09 13° SE 03:52:39 10° SE visible
11 Dec 6.9 05:32:01 11° SW 05:32:01 11° SW 05:32:16 10° SW visible
13 Dec 6.8 18:37:10 10° S 18:38:17 17° S 18:38:17 17° S visible
14 Dec 6.2 17:54:15 10° S 17:56:27 21° SSE 17:56:27 21° SSE visible
14 Dec 7.5 19:35:55 10° WSW 19:36:19 12° WSW 19:36:19 12° WSW visible
15 Dec 6.4 17:12:04 10° SE 17:14:32 15° ESE 17:14:32 15° ESE visible
15 Dec 6.2 18:52:02 10° SW 18:54:24 30° SW 18:54:24 30° SW visible
16 Dec 4.8 18:08:27 10° SSW 18:12:25 55° SSE 18:12:25 55° SSE visible
16 Dec 7.7 19:51:59 10° W 19:52:17 11° W 19:52:17 11° W visible
17 Dec 5.3 17:25:18 10° S 17:29:26 34° ESE 17:30:22 31° E visible
17 Dec 6.5 19:07:38 10° WSW 19:10:14 28° W 19:10:14 28° W visible
18 Dec 6.1 16:42:40 10° SSE 16:45:59 20° ESE 16:48:16 14° ENE visible
18 Dec 4.8 18:23:35 10° SW 18:28:04 62° NW 18:28:07 62° NW visible
19 Dec 4.4 17:39:50 10° SSW 17:44:23 79° ESE 17:45:57 39° NE visible
19 Dec 7.1 19:23:54 10° W 19:25:48 18° WNW 19:25:48 18° WNW visible
